Location: Bluff Heights
(33.7692°N, 118.1592°W)
Time: 10:44:52
(UTC+00:00)

Tiros 1 - Pass Details

Date: 02 August 2021
Orbit: 630 x 663 km, 48.4° (Epoch: 22 September)

Event Time Altitude Azimuth Distance (km) Brightness Sun altitude
Rises 23:11:07 0° 195° (SSW) 2,977 10.8 44.2°
Reaches altitude 10° 23:13:55 10° 180° (S) 2,068 9.9 43.6°
Maximum altitude 23:17:31 22° 131° (SE) 1,449 8.9 42.9°
Drops below altitude 10° 23:21:09 10° 81° (E) 2,069 9.4 42.1°
Sets 23:23:56 0° 66° (ENE) 2,980 10.1 41.6°
